Terug naar catalogus

SITRO-AIS-22

ActiefCommunicatieSSO
NORAD 61740·PAYLOAD·🇷🇺 Russia
Deze satellietnaam is nog niet bevestigd door officiële bronnen.

Gelanceerd Nov 4, 2024 vanaf Vostochny Cosmodrome

Loading…

Volgende Passages (komende 24 uur)

TLE

VersSource: Space-Track

Epoch: Sep 14, 2026, 20:38 UTC

1 61740U 24199F   26257.86020741  .00001685  00000-0  15372-3 0  9994
2 61740  97.3216  90.0982 0013656 116.6164 243.6459 14.96253655145326

Volg SITRO-AIS-22 in realtime met AllMySat

Download on the App Store